Location: Mentone
(34.5413°N, 85.5351°W)
Time: 20:29:56
(UTC-05:00)

Okean O Rocket - Visible Passes

Search period start: 03 September 2015 00:00
Search period end: 13 September 2015 00:00
Orbit: 623 x 646 km, 98.0° (Epoch: 02 September)

Date Brightness Start Highest point End Pass type
(mag) Time Alt. Az. Time Alt. Az. Time Alt. Az.
03 Sep 2.8 03:38:22 10° NNE 03:41:32 41° NE 03:41:32 41° NE visible
03 Sep 3.6 05:17:05 10° NW 05:18:43 12° WNW 05:19:00 11° WNW visible
04 Sep 2.1 04:00:10 10° N 04:03:35 53° N 04:03:35 53° N visible
05 Sep 4.7 02:47:39 10° ENE 02:48:10 11° ENE 02:48:10 11° ENE visible
05 Sep 2.3 04:22:14 10° N 04:25:39 39° NW 04:25:39 39° NW visible
06 Sep 4.1 03:08:19 10° NE 03:10:14 19° ENE 03:10:14 19° ENE visible
06 Sep 2.9 04:44:35 10° NNW 04:47:42 24° WNW 04:47:42 24° WNW visible
07 Sep 3.4 03:29:39 10° NNE 03:32:17 30° NE 03:32:17 30° NE visible
07 Sep 3.4 05:07:27 10° NNW 05:09:45 15° WNW 05:09:45 15° WNW visible
08 Sep 2.7 03:51:22 10° NNE 03:54:20 42° NNE 03:54:20 42° NNE visible
09 Sep 2.4 04:13:19 10° N 04:16:24 40° NNW 04:16:24 40° NNW visible
10 Sep 4.5 02:59:52 10° NE 03:00:59 14° ENE 03:00:59 14° ENE visible
10 Sep 2.8 04:35:32 10° N 04:38:27 28° NW 04:38:27 28° NW visible
11 Sep 3.9 03:21:00 10° NNE 03:23:01 23° NE 03:23:01 23° NE visible
11 Sep 3.3 04:58:07 10° NNW 05:00:30 18° WNW 05:00:30 18° WNW visible
12 Sep 3.2 03:42:35 10° NNE 03:45:04 32° NNE 03:45:04 32° NNE visible
12 Sep 3.8 05:21:58 10° NW 05:22:33 10° WNW 05:22:33 10° WNW visible
